Time,TemperatureF,DewpointF,PressureIn,WindDirection,WindDirectionDegrees,WindSpeedMPH,WindSpeedGustMPH,Humidity,HourlyPrecipIn,Conditions,Clouds,dailyrainin,SoftwareType,DateUTC
2013-07-07 00:08:00,77.4,66.4,29.79,WNW,292,2.7,-999.0,69,-99.99,,,0.00,Acu-Link.com,2013-07-07 05:08:00,
2013-07-07 00:23:00,77.0,66.0,29.79,ESE,112,4.2,-999.0,69,-99.99,,,0.00,Acu-Link.com,2013-07-07 05:23:00,
2013-07-07 00:39:00,77.4,66.4,29.79,ESE,112,4.2,-999.0,69,-99.99,,,0.00,Acu-Link.com,2013-07-07 05:39:00,
2013-07-07 00:54:00,77.5,66.1,29.79,SW,225,5.8,-999.0,68,-99.99,,,0.00,Acu-Link.com,2013-07-07 05:54:00,
2013-07-07 01:09:00,77.7,65.9,29.78,WSW,247,4.2,-999.0,67,-99.99,,,0.00,Acu-Link.com,2013-07-07 06:09:00,
2013-07-07 01:24:00,78.1,65.4,29.80,ESE,112,5.3,-999.0,65,-99.99,,,0.00,Acu-Link.com,2013-07-07 06:24:00,
2013-07-07 01:40:00,78.3,65.5,29.79,SSE,157,3.2,-999.0,65,-99.99,,,0.00,Acu-Link.com,2013-07-07 06:40:00,
2013-07-07 01:55:00,77.9,65.6,29.78,South,180,7.3,-999.0,66,-99.99,,,0.00,Acu-Link.com,2013-07-07 06:55:00,
2013-07-07 02:10:00,77.5,65.7,29.77,South,180,6.8,-999.0,67,-99.99,,,0.00,Acu-Link.com,2013-07-07 07:10:00,
2013-07-07 02:25:00,77.5,66.1,29.78,ESE,112,3.7,-999.0,68,-99.99,,,0.00,Acu-Link.com,2013-07-07 07:25:00,
2013-07-07 02:40:00,77.5,66.5,29.79,WNW,292,2.2,-999.0,69,-99.99,,,0.00,Acu-Link.com,2013-07-07 07:40:00,
2013-07-07 02:56:00,77.2,66.2,29.79,SE,135,2.7,-999.0,69,-99.99,,,0.00,Acu-Link.com,2013-07-07 07:56:00,
2013-07-07 03:11:00,77.0,66.4,29.80,WSW,247,3.2,-999.0,70,-99.99,,,0.00,Acu-Link.com,2013-07-07 08:11:00,
2013-07-07 03:26:00,76.5,66.4,29.79,SSE,157,3.2,-999.0,71,-99.99,,,0.00,Acu-Link.com,2013-07-07 08:26:00,
2013-07-07 03:41:00,76.3,66.6,29.78,South,180,3.7,-999.0,72,-99.99,,,0.00,Acu-Link.com,2013-07-07 08:41:00,
2013-07-07 03:56:00,76.1,66.8,29.78,SSW,202,3.2,-999.0,73,-99.99,,,0.00,Acu-Link.com,2013-07-07 08:56:00,
2013-07-07 04:11:00,75.9,66.6,29.79,ESE,112,5.3,-999.0,73,-99.99,,,0.00,Acu-Link.com,2013-07-07 09:11:00,
2013-07-07 04:27:00,75.7,66.8,29.78,West,270,4.7,-999.0,74,-99.99,,,0.00,Acu-Link.com,2013-07-07 09:27:00,
2013-07-07 04:42:00,75.7,66.8,29.78,SE,135,6.8,-999.0,74,-99.99,,,0.00,Acu-Link.com,2013-07-07 09:42:00,
2013-07-07 04:57:00,75.6,66.7,29.78,SW,225,6.8,-999.0,74,-99.99,,,0.00,Acu-Link.com,2013-07-07 09:57:00,
2013-07-07 05:12:00,75.6,66.7,29.77,South,180,5.8,-999.0,74,-99.99,,,0.00,Acu-Link.com,2013-07-07 10:12:00,
2013-07-07 05:28:00,75.6,66.7,29.77,SW,225,3.7,-999.0,74,-99.99,,,0.00,Acu-Link.com,2013-07-07 10:28:00,
2013-07-07 05:43:00,75.6,66.7,29.78,SE,135,5.8,-999.0,74,-99.99,,,0.00,Acu-Link.com,2013-07-07 10:43:00,
2013-07-07 05:58:00,75.4,66.5,29.78,SW,225,3.7,-999.0,74,-99.99,,,0.00,Acu-Link.com,2013-07-07 10:58:00,
2013-07-07 06:14:00,75.2,66.7,29.79,SSE,157,6.8,-999.0,75,-99.99,,,0.00,Acu-Link.com,2013-07-07 11:14:00,
2013-07-07 06:29:00,73.0,64.6,29.78,SW,225,4.7,-999.0,75,-99.99,,,0.00,Acu-Link.com,2013-07-07 11:29:00,
2013-07-07 06:44:00,75.2,67.1,29.78,ESE,112,3.2,-999.0,76,-99.99,,,0.00,Acu-Link.com,2013-07-07 11:44:00,
2013-07-07 06:59:00,75.2,67.1,29.78,SSW,202,5.8,-999.0,76,-99.99,,,0.00,Acu-Link.com,2013-07-07 11:59:00,
2013-07-07 07:14:00,75.6,67.5,29.78,SSW,202,2.2,-999.0,76,-99.99,,,0.00,Acu-Link.com,2013-07-07 12:14:00,
2013-07-07 07:30:00,76.6,68.1,29.78,South,180,3.2,-999.0,75,-99.99,,,0.00,Acu-Link.com,2013-07-07 12:30:00,
2013-07-07 07:45:00,77.9,68.5,29.80,ESE,112,7.3,-999.0,73,-99.99,,,0.00,Acu-Link.com,2013-07-07 12:45:00,
2013-07-07 08:01:00,78.8,69.0,29.79,SSW,202,8.3,-999.0,72,-99.99,,,0.00,Acu-Link.com,2013-07-07 13:01:00,
2013-07-07 08:16:00,80.1,69.8,29.79,SW,225,5.3,-999.0,71,-99.99,,,0.00,Acu-Link.com,2013-07-07 13:16:00,
2013-07-07 08:32:00,80.6,70.3,29.78,ESE,112,7.3,-999.0,71,-99.99,,,0.00,Acu-Link.com,2013-07-07 13:32:00,
2013-07-07 08:47:00,81.9,70.7,29.78,ESE,112,7.3,-999.0,69,-99.99,,,0.00,Acu-Link.com,2013-07-07 13:47:00,
2013-07-07 09:02:00,82.0,70.8,29.79,SW,225,6.3,-999.0,69,-99.99,,,0.00,Acu-Link.com,2013-07-07 14:02:00,
2013-07-07 09:18:00,81.3,71.0,29.81,ESE,112,9.4,-999.0,71,-99.99,,,0.00,Acu-Link.com,2013-07-07 14:18:00,
2013-07-07 09:33:00,80.8,70.1,29.81,SSE,157,6.8,-999.0,70,-99.99,,,0.00,Acu-Link.com,2013-07-07 14:33:00,
2013-07-07 09:48:00,80.4,70.1,29.79,ESE,112,8.3,-999.0,71,-99.99,,,0.00,Acu-Link.com,2013-07-07 14:48:00,
2013-07-07 10:03:00,82.4,71.2,29.78,SSE,157,2.7,-999.0,69,-99.99,,,0.00,Acu-Link.com,2013-07-07 15:03:00,
2013-07-07 10:24:00,83.8,71.6,29.77,ESE,112,8.3,-999.0,67,-99.99,,,0.00,Acu-Link.com,2013-07-07 15:24:00,
2013-07-07 10:40:00,84.9,71.8,29.78,South,180,4.7,-999.0,65,-99.99,,,0.00,Acu-Link.com,2013-07-07 15:40:00,
2013-07-07 10:56:00,85.8,73.1,29.78,SW,225,2.7,-999.0,66,-99.99,,,0.00,Acu-Link.com,2013-07-07 15:56:00,
2013-07-07 11:11:00,86.0,73.3,29.79,SE,135,2.7,-999.0,66,-99.99,,,0.00,Acu-Link.com,2013-07-07 16:11:00,
2013-07-07 11:26:00,88.5,72.8,29.79,SE,135,5.8,-999.0,60,-99.99,,,0.00,Acu-Link.com,2013-07-07 16:26:00,
2013-07-07 11:41:00,89.4,72.6,29.79,WSW,247,4.2,-999.0,58,-99.99,,,0.00,Acu-Link.com,2013-07-07 16:41:00,
2013-07-07 11:57:00,90.0,72.7,29.77,South,180,5.3,-999.0,57,-99.99,,,0.00,Acu-Link.com,2013-07-07 16:57:00,
2013-07-07 12:12:00,91.0,73.1,29.79,SSE,157,4.7,-999.0,56,-99.99,,,0.00,Acu-Link.com,2013-07-07 17:12:00,
2013-07-07 12:27:00,91.8,72.7,29.77,East,90,2.7,-999.0,54,-99.99,,,0.00,Acu-Link.com,2013-07-07 17:27:00,
2013-07-07 12:42:00,93.0,73.3,29.76,SSW,202,5.8,-999.0,53,-99.99,,,0.00,Acu-Link.com,2013-07-07 17:42:00,
2013-07-07 12:58:00,92.5,71.1,29.80,NNW,337,6.8,-999.0,50,-99.99,,,0.00,Acu-Link.com,2013-07-07 17:58:00,
2013-07-07 13:13:00,92.7,72.5,29.78,WSW,247,7.3,-999.0,52,-99.99,,,0.00,Acu-Link.com,2013-07-07 18:13:00,
2013-07-07 13:28:00,93.6,73.3,29.77,SW,225,5.8,-999.0,52,-99.99,,,0.00,Acu-Link.com,2013-07-07 18:28:00,
2013-07-07 13:44:00,90.3,71.9,29.77,SSE,157,2.2,-999.0,55,-99.99,,,0.00,Acu-Link.com,2013-07-07 18:44:00,
2013-07-07 13:59:00,90.7,71.2,29.79,South,180,3.2,-999.0,53,-99.99,,,0.00,Acu-Link.com,2013-07-07 18:59:00,
2013-07-07 14:14:00,92.5,72.8,29.78,SE,135,5.8,-999.0,53,-99.99,,,0.00,Acu-Link.com,2013-07-07 19:14:00,
2013-07-07 14:29:00,93.7,72.8,29.78,SSW,202,3.7,-999.0,51,-99.99,,,0.00,Acu-Link.com,2013-07-07 19:29:00,
2013-07-07 14:44:00,93.9,72.4,29.79,SSE,157,4.7,-999.0,50,-99.99,,,0.00,Acu-Link.com,2013-07-07 19:44:00,
2013-07-07 15:00:00,94.6,73.6,29.80,West,270,3.2,-999.0,51,-99.99,,,0.00,Acu-Link.com,2013-07-07 20:00:00,
2013-07-07 15:15:00,94.3,72.2,29.78,ESE,112,5.8,-999.0,49,-99.99,,,0.00,Acu-Link.com,2013-07-07 20:15:00,
2013-07-07 15:30:00,94.8,73.2,29.78,SW,225,3.7,-999.0,50,-99.99,,,0.00,Acu-Link.com,2013-07-07 20:30:00,
2013-07-07 15:46:00,95.0,73.4,29.79,SSW,202,3.7,-999.0,50,-99.99,,,0.00,Acu-Link.com,2013-07-07 20:46:00,
2013-07-07 16:01:00,96.1,73.2,29.77,WNW,292,6.8,-999.0,48,-99.99,,,0.00,Acu-Link.com,2013-07-07 21:01:00,
2013-07-07 16:17:00,95.4,73.2,29.77,SSW,202,2.7,-999.0,49,-99.99,,,0.00,Acu-Link.com,2013-07-07 21:17:00,
2013-07-07 16:32:00,96.1,73.8,29.79,West,270,3.2,-999.0,49,-99.99,,,0.00,Acu-Link.com,2013-07-07 21:32:00,
2013-07-07 16:47:00,96.4,73.5,29.78,West,270,2.7,-999.0,48,-99.99,,,0.00,Acu-Link.com,2013-07-07 21:47:00,
2013-07-07 17:03:00,96.3,73.4,29.78,NW,315,6.3,-999.0,48,-99.99,,,0.00,Acu-Link.com,2013-07-07 22:03:00,
2013-07-07 17:18:00,95.5,72.6,29.78,SSW,202,5.3,-999.0,48,-99.99,,,0.00,Acu-Link.com,2013-07-07 22:18:00,
2013-07-07 17:33:00,95.4,73.2,29.79,NNE,22,4.7,-999.0,49,-99.99,,,0.00,Acu-Link.com,2013-07-07 22:33:00,
2013-07-07 17:48:00,96.4,74.1,29.78,South,180,2.2,-999.0,49,-99.99,,,0.00,Acu-Link.com,2013-07-07 22:48:00,
2013-07-07 18:03:00,95.4,72.5,29.78,SSW,202,4.7,-999.0,48,-99.99,,,0.00,Acu-Link.com,2013-07-07 23:03:00,
2013-07-07 18:19:00,96.3,72.7,29.76,SW,225,5.8,-999.0,47,-99.99,,,0.00,Acu-Link.com,2013-07-07 23:19:00,
2013-07-07 18:34:00,96.6,72.4,29.76,SSW,202,2.7,-999.0,46,-99.99,,,0.00,Acu-Link.com,2013-07-07 23:34:00,
2013-07-07 18:52:00,96.8,72.6,29.76,ENE,67,2.7,-999.0,46,-99.99,,,0.00,Acu-Link.com,2013-07-07 23:52:00,
2013-07-07 20:28:00,91.0,71.5,29.76,SE,135,3.2,-999.0,53,-99.99,,,0.00,Acu-Link.com,2013-07-08 01:28:00,
2013-07-07 20:46:00,89.6,70.2,29.78,South,180,1.1,-999.0,53,-99.99,,,0.00,Acu-Link.com,2013-07-08 01:46:00,
2013-07-07 21:07:00,87.8,69.6,29.79,NNW,337,0.0,-999.0,55,-99.99,,,0.00,Acu-Link.com,2013-07-08 02:07:00,
2013-07-07 22:02:00,82.9,70.3,29.82,NNW,337,0.0,-999.0,66,-99.99,,,0.00,Acu-Link.com,2013-07-08 03:02:00,
2013-07-07 22:20:00,82.2,69.7,29.83,NNE,22,0.0,-999.0,66,-99.99,,,0.00,Acu-Link.com,2013-07-08 03:20:00,
2013-07-07 22:56:00,81.9,70.3,29.83,NE,45,0.0,-999.0,68,-99.99,,,0.00,Acu-Link.com,2013-07-08 03:56:00,
2013-07-07 23:16:00,80.6,71.1,29.84,ENE,67,0.0,-999.0,73,-99.99,,,0.00,Acu-Link.com,2013-07-08 04:16:00,
2013-07-07 23:33:00,80.4,72.1,29.84,NNE,22,0.0,-999.0,76,-99.99,,,0.00,Acu-Link.com,2013-07-08 04:33:00,
2013-07-07 23:48:00,80.2,71.5,29.86,NNE,22,0.0,-999.0,75,-99.99,,,0.00,Acu-Link.com,2013-07-08 04:48:00,